Effective Sunday, March 17, 2024, the National Weather Service National Data Buoy Center will discontinue its Dial-A-Buoy Interactive Voice Response system. For more information, see Service Change Notice 24-06 (PDF).

Station SFXC1 - Rush Ranch, San Francisco Bay Reserve, CA Image indicating link to RSS feed of recent meteorological observations for station SFXC1


Conditions at SFXC1 as of
(3:45 pm PST)
2345 GMT on 02/29/2024:
     

Click on the graph icon in the table below to see a time series plot of the last five days of that observation.

5-day plot - Wind Direction Wind Direction (WDIR):SSW ( 210 deg true )
5-day plot - Wind Speed Wind Speed (WSPD): 18.1 kts
5-day plot - Atmospheric Pressure Atmospheric Pressure (PRES):29.91 in
5-day plot - Air Temperature Air Temperature (ATMP): 58.6 °F
5-day plot - Dew Point Dew Point (DEWP): 50.2 °F
5-day plot -  Wind Speed, Wind Gust and Atmospheric Pressure Combined plot of Wind Speed, Gust, and Air Pressure
Previous observations
TIME
(PST)
5-day plot - Wind Direction
WDIR
 
5-day plot - Wind Speed
WSPD
kts
5-day plot - Wind Gust
GST
kts
5-day plot - Wave Height
WVHT
ft
5-day plot - Dominant Wave Period
DPD
sec
5-day plot - Average Wave Period
APD
sec
5-day plot - Mean Wave Direction
MWD
 
5-day plot - Atmospheric Pressure
PRES
in
5-day plot - Pressure Tendency
PTDY
in
5-day plot - Air Temperature
ATMP
°F
5-day plot - Water Temperature
WTMP
°F
5-day plot - Dew Point
DEWP
°F
5-day plot - Salinity
SAL
psu
5-day plot - Visibility
VIS
nmi
5-day plot - Tide (above MLLW)
TIDE
ft
2024-02-29 02:45 pmSSW 17.1-----29.91- 59.9- 50.2---
2024-02-29 02:30 pm SW 18.1-----29.91- 59.5- 49.8---
2024-02-29 02:15 pmSSW 15.9-----29.94- 58.5- 50.0---
2024-02-29 02:00 pmSSW 15.0-----29.94-0.03 58.5- 50.0---
2024-02-29 01:45 pmSSW 13.0-----29.94- 58.5- 50.0---
2024-02-29 01:30 pmSSW 15.0-----29.94- 58.8- 50.4---
2024-02-29 01:15 pmSSW 18.1-----29.94- 59.2- 50.4---
2024-02-29 01:00 pmSSW 18.1-----29.94-0.03 59.2- 50.0---
2024-02-29 12:45 pmSSW 17.1-----29.94- 60.4- 50.4---
2024-02-29 12:30 pmSSW 15.0-----29.97- 59.7- 50.9---
2024-02-29 12:15 pm S 13.0-----29.97- 56.1- 51.4---
2024-02-29 12:00 pm S 15.0-----29.97+0.00 57.6- 50.2---
2024-02-29 11:45 am S 14.0-----29.97- 57.9- 50.2---
2024-02-29 11:30 am S 15.0-----29.97- 57.6- 50.2---
2024-02-29 11:15 am S 14.0-----29.97- 57.6- 49.8---
2024-02-29 11:00 am S 14.0-----29.97+0.00 56.5- 49.8---
2024-02-29 10:45 amSSW 15.0-----29.97- 56.1- 48.7---
2024-02-29 10:30 amSSW 13.0-----29.97- 56.1- 48.0---
2024-02-29 10:15 amSSW 13.0-----29.97- 55.9- 47.1---
2024-02-29 10:00 am S 12.0-----29.97+0.00 55.2- 46.8---
2024-02-29 09:45 am S 13.0-----29.97- 54.9- 46.4---
2024-02-29 09:30 am S 12.0-----29.97- 54.7- 46.4---
2024-02-29 09:15 amSSW 12.0-----29.97- 54.0- 46.4---
2024-02-29 09:00 amSSW 8.9-----29.97+0.00 53.4- 46.2---
2024-02-29 08:45 amSSW 12.0-----29.97- 53.1- 46.2---
2024-02-29 08:30 am S 11.1-----29.97- 53.1- 46.2---
2024-02-29 08:15 amSSW 12.0-----29.97- 53.1- 46.2---
2024-02-29 08:00 amSSW 13.0-----29.97+0.00 52.5- 46.2---
2024-02-29 07:45 amSSW 14.0-----29.97- 52.3- 46.4---
2024-02-29 07:30 amSSW 12.0-----29.97- 52.3- 46.8---
2024-02-29 07:15 amSSW 11.1-----29.97- 52.3- 46.8---
2024-02-29 07:00 am SW 11.1-----29.97+0.00 52.5- 46.9---
2024-02-29 06:45 am SW 9.9-----29.97- 52.3- 47.1---
2024-02-29 06:30 am SW 8.0-----29.97- 52.2- 46.9---
2024-02-29 06:15 amSSW 6.0-----29.97- 51.6- 46.8---
2024-02-29 06:00 am S 8.0-----29.97+0.00 51.4- 46.6---
2024-02-29 05:45 amSSW 8.9-----29.97- 51.4- 46.8---
2024-02-29 05:30 amSSW 9.9-----29.97- 51.3- 46.6---
2024-02-29 05:15 am SW 7.0-----29.97- 50.9- 46.6---
2024-02-29 05:00 am SW 5.1-----29.97+0.00 51.1- 46.8---
2024-02-29 04:45 am SW 6.0-----29.97- 51.1- 46.8---
2024-02-29 04:30 am SW 6.0-----29.97- 50.9- 46.9---
2024-02-29 04:15 am SW 5.1-----29.97- 51.3- 47.3---
2024-02-29 04:00 am SW 7.0-----29.97-0.03 51.4- 47.5---
2024-02-29 03:45 amWSW 8.0-----29.97- 51.1- 47.1---
2024-02-29 03:30 am W 7.0-----29.97- 50.4- 46.8---
2024-02-29 03:15 am W 5.1-----29.97- 50.0- 46.6---
2024-02-29 03:00 amWNW 4.1-----29.97-0.03 50.0- 46.4---
2024-02-29 02:45 am W 5.1-----29.97- 49.8- 46.2---
2024-02-29 02:30 am W 7.0-----29.97- 49.6- 46.0---
2024-02-29 02:15 am W 8.9-----29.97- 49.1- 45.7---
2024-02-29 02:00 am W 12.0-----29.97-0.03 49.6- 45.7---
2024-02-29 01:45 am W 11.1-----30.00- 49.5- 45.9---
2024-02-29 01:30 amWSW 8.0-----30.00- 49.1- 45.5---
2024-02-29 01:15 amWSW 7.0-----30.00- 49.5- 45.9---
2024-02-29 01:00 amWSW 7.0-----30.00+0.00 49.1- 45.5---
2024-02-29 12:45 amWSW 5.1-----30.00- 48.9- 45.3---
2024-02-29 12:30 am S 1.0-----30.00- 48.9- 44.6---
2024-02-29 12:15 am NE 1.9-----30.00- 48.6- 44.2---
2024-02-29 12:00 am NW 2.9-----30.00+0.03 50.2- 44.6---
2024-02-28 11:45 pm W 4.1-----30.00- 50.5- 45.0---
2024-02-28 11:30 pm W 8.0-----30.00- 49.5- 44.2---
2024-02-28 11:15 pm W 7.0-----30.00- 49.5- 43.3---
2024-02-28 11:00 pmWSW 8.0-----30.00+0.03 50.0- 43.2---
2024-02-28 10:45 pm W 7.0-----30.00- 49.8- 43.3---
2024-02-28 10:30 pm W 7.0-----30.00- 50.5- 42.6---
2024-02-28 10:15 pmWSW 8.0-----30.00- 51.1- 42.1---
2024-02-28 10:00 pmWSW 7.0-----30.00+0.03 51.3- 41.9---
2024-02-28 09:45 pmWSW 8.0-----30.00- 51.8- 42.8---
2024-02-28 09:30 pmWSW 8.9-----29.97- 52.0- 42.6---
2024-02-28 09:15 pm W 7.0-----29.97- 51.1- 42.8---
2024-02-28 09:00 pm W 6.0-----29.97+0.00 50.9- 43.3---
2024-02-28 08:45 pm W 6.0-----29.97- 50.7- 44.2---
2024-02-28 08:30 pm W 4.1-----29.97- 50.7- 44.2---
2024-02-28 08:15 pmWSW 1.9-----29.97- 52.2- 45.0---
2024-02-28 08:00 pm W 2.9-----29.97+0.00 52.0- 44.4---
2024-02-28 07:45 pm W 4.1-----29.97- 51.6- 43.0---
2024-02-28 07:30 pmWSW 4.1-----29.97- 52.5- 41.5---
2024-02-28 07:15 pm W 4.1-----29.97- 51.8- 41.7---
2024-02-28 07:00 pmNNW 1.9-----29.97+0.00 52.3- 42.6---
2024-02-28 06:45 pmWNW 2.9-----29.97- 54.9- 43.0---
2024-02-28 06:30 pm W 4.1-----29.97- 55.0- 42.4---
2024-02-28 06:15 pm W 5.1-----29.97- 55.2- 40.8---
2024-02-28 06:00 pm W 4.1-----29.97-0.03 58.1- 38.3---
2024-02-28 05:45 pm W 5.1-----29.97- 61.2- 36.3---
2024-02-28 05:30 pm W 5.1-----29.97- 63.9- 33.8---
2024-02-28 05:15 pmWSW 2.9-----29.97- 65.5- 32.7---
2024-02-28 05:00 pm SW 2.9-----29.97-0.03 65.8- 34.0---
2024-02-28 04:45 pm SW 2.9-----29.97- 66.4- 34.3---
2024-02-28 04:30 pm SW 2.9-----29.97- 66.2- 34.3---
2024-02-28 04:15 pm S 1.9-----29.97- 66.4- 35.2---
2024-02-28 04:00 pm SW 1.9-----29.97-0.06 66.7- 34.7---